Location: Unspecified
(34.1812°N, 0.0000°E)
Time: 07:58:05
(UTC+00:00)

CUTE-I - Visible Passes

Search period start: 05 April 2026 00:00
Search period end: 15 April 2026 00:00
Orbit: 803 x 819 km, 98.7° (Epoch: 28 March)

Date Brightness Start Highest point End Pass type
(mag) Time Alt. Az. Time Alt. Az. Time Alt. Az.
5 Apr ? 05:10:10 10° NE 05:13:25 16° E 05:16:39 10° SE visible
7 Apr ? 19:01:31 10° WSW 19:03:53 13° W 19:06:18 10° WNW visible
10 Apr ? 04:55:12 10° E 04:55:50 10° E 04:56:30 10° E visible
11 Apr ? 19:08:33 10° WSW 19:10:00 11° W 19:11:28 10° WNW visible
14 Apr ? 04:59:53 10° ENE 05:01:57 12° E 05:04:01 10° ESE visible
